SBI1106 LTFG-UWKD

Flight info

Callsign SBI1106
Flight time N/A
Altitude 28000
Route ELROP UT339 MUT A285 SELVI/N0379F270 A285 SIV/N0443F390 UW706 TBN/N0373F270 G67 SARPI/N0441F390 DCT LURIS/K0811F390 A955 MKL G96 IPLED N37 AKT N60 ATR/K0809F380 M158 URL M161 MOF T793 TONSI TONSI1T
Aircraft A20N/M-SDE2E3FGHIRWXY/LB1

Departure

Time 2026-05-07 13:59
Airport Gazipaşa-Alanya Airport (LTFG)

Arrival

Time N/A
Airport Kazan International Airport (UWKD)
Time Latitude Longitude Altitude Speed Heading
2026-05-07 13:49 36.29831 32.30318 109 ft 0 kts 175°
2026-05-07 13:53 36.29832 32.30317 109 ft 1 kts 175°
2026-05-07 13:54 36.29837 32.30317 109 ft 1 kts 175°
2026-05-07 13:54 36.29842 32.30316 110 ft 1 kts 175°
2026-05-07 13:54 36.29849 32.30315 110 ft 1 kts 197°
2026-05-07 13:54 36.29856 32.30320 110 ft 1 kts 240°
2026-05-07 13:55 36.29858 32.30323 110 ft 0 kts 256°
2026-05-07 13:56 36.29858 32.30320 108 ft 2 kts 256°
2026-05-07 13:56 36.29839 32.30234 107 ft 16 kts 259°
2026-05-07 13:56 36.29892 32.30156 107 ft 12 kts
2026-05-07 13:57 36.29950 32.30277 108 ft 26 kts 79°
2026-05-07 13:57 36.29992 32.30557 114 ft 40 kts 79°
2026-05-07 13:57 36.30043 32.30917 126 ft 36 kts 64°
2026-05-07 13:57 36.30058 32.31015 133 ft 3 kts 172°
2026-05-07 13:58 36.30042 32.30995 132 ft 9 kts 247°
2026-05-07 13:58 36.30012 32.30755 116 ft 68 kts 261°
2026-05-07 13:58 36.29899 32.29836 100 ft 143 kts 261°
2026-05-07 13:58 36.29735 32.28438 367 ft 180 kts 261°
2026-05-07 13:59 36.29556 32.26850 1043 ft 191 kts 261°
2026-05-07 13:59 36.29354 32.25127 1298 ft 218 kts 261°
2026-05-07 13:59 36.29126 32.23250 1981 ft 213 kts 261°
2026-05-07 13:59 36.28902 32.21428 3053 ft 213 kts 261°
2026-05-07 14:00 36.28315 32.19708 4101 ft 225 kts 231°
2026-05-07 14:00 36.27007 32.18532 4992 ft 246 kts 201°
2026-05-07 14:00 36.25239 32.18243 5711 ft 271 kts 175°
2026-05-07 14:00 36.23288 32.18656 6284 ft 299 kts 166°
2026-05-07 14:01 36.21247 32.19566 6662 ft 327 kts 147°
2026-05-07 14:01 36.19511 32.21522 7046 ft 351 kts 124°
2026-05-07 14:01 36.18429 32.24316 7420 ft 373 kts 103°
2026-05-07 14:01 36.18172 32.27573 7855 ft 388 kts 83°
2026-05-07 14:02 36.18710 32.30794 8803 ft 389 kts 72°
2026-05-07 14:02 36.19470 32.34024 9789 ft 392 kts 72°
2026-05-07 14:02 36.20151 32.37323 10650 ft 398 kts 75°
2026-05-07 14:02 36.20712 32.40719 11378 ft 407 kts 78°
2026-05-07 14:03 36.21187 32.44209 12108 ft 416 kts 79°
2026-05-07 14:03 36.21619 32.47774 12975 ft 422 kts 80°
2026-05-07 14:03 36.22081 32.51400 13781 ft 429 kts 75°
2026-05-07 14:03 36.23094 32.54884 14549 ft 433 kts 61°
2026-05-07 14:04 36.24762 32.57989 15392 ft 435 kts 47°
2026-05-07 14:04 36.26974 32.60543 16228 ft 437 kts 34°
2026-05-07 14:04 36.29608 32.62420 17063 ft 438 kts 21°
2026-05-07 14:04 36.32519 32.63524 17932 ft 440 kts
2026-05-07 14:05 36.35567 32.63814 18717 ft 441 kts 356°
2026-05-07 14:05 36.38635 32.63504 19508 ft 443 kts 354°
2026-05-07 14:05 36.41730 32.63410 20269 ft 448 kts 360°
2026-05-07 14:05 36.44848 32.63776 21008 ft 453 kts
2026-05-07 14:06 36.47945 32.64597 21702 ft 460 kts 14°
2026-05-07 14:06 36.50908 32.66187 22382 ft 468 kts 26°
2026-05-07 14:06 36.53602 32.68533 22975 ft 479 kts 37°
2026-05-07 14:06 36.55916 32.71569 23561 ft 490 kts 48°
2026-05-07 14:07 36.57755 32.75188 24045 ft 499 kts 58°
2026-05-07 14:07 36.59305 32.79062 24505 ft 501 kts 59°
2026-05-07 14:07 36.60913 32.82841 24961 ft 499 kts 56°
2026-05-07 14:07 36.62693 32.86545 25449 ft 495 kts 53°
2026-05-07 14:08 36.64570 32.90129 25925 ft 491 kts 51°
2026-05-07 14:08 36.66491 32.93632 26423 ft 487 kts 50°
2026-05-07 14:08 36.68422 32.97090 26923 ft 485 kts 50°
2026-05-07 14:08 36.70348 33.00524 27430 ft 482 kts 50°
2026-05-07 14:09 36.72261 33.03939 27950 ft 480 kts 50°
2026-05-07 14:09 36.74171 33.07355 28476 ft 477 kts 50°
2026-05-07 14:09 36.76061 33.10745 29016 ft 474 kts 50°
2026-05-07 14:09 36.77913 33.14072 29566 ft 471 kts 50°
2026-05-07 14:10 36.79776 33.17423 30132 ft 469 kts 49°
2026-05-07 14:10 36.81627 33.20755 30623 ft 466 kts 49°
2026-05-07 14:10 36.83470 33.24076 31107 ft 464 kts 49°
2026-05-07 14:10 36.85325 33.27352 31606 ft 459 kts 46°
2026-05-07 14:11 36.87392 33.30350 32117 ft 451 kts 39°
2026-05-07 14:11 36.89650 33.33012 32629 ft 444 kts 36°
2026-05-07 14:11 36.91931 33.35607 33157 ft 441 kts 36°
2026-05-07 14:11 36.94182 33.38186 33701 ft 437 kts 36°
2026-05-07 14:12 36.96411 33.40747 34226 ft 433 kts 36°
2026-05-07 14:12 36.98615 33.43281 34704 ft 428 kts 36°
2026-05-07 14:12 37.00800 33.45790 35184 ft 423 kts 36°
2026-05-07 14:12 37.02974 33.48286 35463 ft 424 kts 36°
2026-05-07 14:13 37.05144 33.50777 35717 ft 424 kts 36°
2026-05-07 14:13 37.07319 33.53277 35975 ft 425 kts 36°
2026-05-07 14:13 37.09497 33.55782 36222 ft 425 kts 37°
2026-05-07 14:13 37.11666 33.58281 36481 ft 424 kts 37°
2026-05-07 14:14 37.13843 33.60791 36742 ft 424 kts 37°
2026-05-07 14:14 37.15983 33.63261 37003 ft 423 kts 37°
2026-05-07 14:14 37.18148 33.65761 37151 ft 426 kts 37°
2026-05-07 14:15 37.22563 33.70860 37158 ft 437 kts 37°
2026-05-07 14:15 37.27089 33.76100 37164 ft 448 kts 37°
2026-05-07 14:16 37.31720 33.81475 37161 ft 458 kts 37°
2026-05-07 14:16 37.36448 33.86974 37165 ft 467 kts 38°
2026-05-07 14:17 37.41245 33.92565 37163 ft 472 kts 38°
2026-05-07 14:17 37.46079 33.98209 37161 ft 476 kts 38°
2026-05-07 14:18 37.50937 34.03903 37161 ft 478 kts 38°